| time (UTC) | temp F | wind direction | speed MPH | gust MPH | rain 1hr in | rain 24hr in | rain mn in | humidity % | barometer mb |
| 20260901172755 | 59 | 23 | 1.0 | 4.0 | 0.00 | 0.00 | 0.00 | 82 | 1018.7 |
| 20260901172244 | 60 | 338 | 0.0 | 4.0 | 0.00 | 0.00 | 0.00 | 82 | 1018.9 |
| 20260901171735 | 61 | 90 | 2.0 | 4.0 | 0.00 | 0.00 | 0.00 | 80 | 1018.6 |
| 20260901170713 | 60 | 248 | 2.0 | 4.0 | 0.00 | 0.00 | 0.00 | 80 | 1018.9 |
| 20260901170204 | 59 | 248 | 0.0 | 4.0 | 0.00 | 0.00 | 0.00 | 82 | 1019.1 |
| 20260901165144 | 60 | 338 | 0.0 | 4.0 | 0.00 | 0.00 | 0.00 | 82 | 1019.0 |
| 20260901164633 | 59 | 23 | 1.0 | 4.0 | 0.00 | 0.00 | 0.00 | 84 | 1019.1 |
| 20260901164129 | 59 | 180 | 1.0 | 2.0 | 0.00 | 0.00 | 0.00 | 84 | 1019.3 |
| 20260901163613 | 58 | 293 | 0.0 | 2.0 | 0.00 | 0.00 | 0.00 | 84 | 1019.4 |
| 20260901163102 | 58 | 248 | 1.0 | 2.0 | 0.00 | 0.00 | 0.00 | 84 | 1019.4 |
| 20260901162553 | 59 | 225 | 1.0 | 2.0 | 0.00 | 0.00 | 0.00 | 84 | 1019.4 |
| 20260901162042 | 58 | 315 | 0.0 | 4.0 | 0.00 | 0.00 | 0.00 | 85 | 1019.5 |
| 20260901161537 | 58 | 248 | 2.0 | 4.0 | 0.00 | 0.00 | 0.00 | 85 | 1019.5 |
| 20260901161022 | 58 | 225 | 0.0 | 4.0 | 0.00 | 0.00 | 0.00 | 85 | 1019.6 |
| 20260901160512 | 57 | 248 | 1.0 | 4.0 | 0.00 | 0.00 | 0.00 | 86 | 1019.5 |
| 20260901160001 | 58 | 338 | 0.0 | 2.0 | 0.00 | 0.00 | 0.00 | 86 | 1019.9 |
| 20260901155452 | 57 | 315 | 0.0 | 2.0 | 0.00 | 0.00 | 0.00 | 87 | 1019.7 |
| 20260901154432 | 57 | 180 | 1.0 | 4.0 | 0.00 | 0.00 | 0.00 | 87 | 1019.5 |
| 20260901153921 | 56 | 203 | 1.0 | 4.0 | 0.00 | 0.00 | 0.00 | 88 | 1019.6 |
| 20260901153412 | 57 | 45 | 0.0 | 4.0 | 0.00 | 0.00 | 0.00 | 89 | 1019.7 |
| 20260901152351 | 56 | 68 | 1.0 | 4.0 | 0.00 | 0.00 | 0.00 | 90 | 1019.4 |
| 20260901151840 | 56 | 225 | 2.0 | 4.0 | 0.00 | 0.00 | 0.00 | 90 | 1019.7 |
| 20260901151330 | 56 | 225 | 1.0 | 2.0 | 0.00 | 0.00 | 0.00 | 90 | 1019.7 |
| 20260901150820 | 56 | 338 | 1.0 | 7.0 | 0.00 | 0.00 | 0.00 | 90 | 1019.7 |
| 20260901150311 | 55 | 225 | 2.0 | 7.0 | 0.00 | 0.00 | 0.00 | 91 | 1019.7 |
| 20260901145801 | 56 | 225 | 2.0 | 4.0 | 0.00 | 0.00 | 0.00 | 90 | 1020.0 |
| 20260901145249 | 55 | 225 | 1.0 | 4.0 | 0.00 | 0.00 | 0.00 | 91 | 1020.0 |
| 20260901144230 | 56 | 293 | 2.0 | 4.0 | 0.00 | 0.00 | 0.00 | 91 | 1020.1 |
| 20260901143720 | 55 | 68 | 1.0 | 4.0 | 0.00 | 0.00 | 0.00 | 92 | 1020.0 |
| 20260901143210 | 55 | 225 | 2.0 | 4.0 | 0.00 | 0.00 | 0.00 | 92 | 1019.9 |
| 20260901142658 | 55 | 158 | 1.0 | 4.0 | 0.00 | 0.00 | 0.00 | 92 | 1019.8 |
| 20260901142149 | 55 | 225 | 1.0 | 6.0 | 0.00 | 0.00 | 0.00 | 92 | 1019.8 |
| 20260901141639 | 55 | 180 | 3.0 | 6.0 | 0.00 | 0.00 | 0.00 | 93 | 1019.7 |
| 20260901141128 | 55 | 158 | 2.0 | 4.0 | 0.00 | 0.00 | 0.00 | 93 | 1019.9 |
| 20260901140618 | 55 | 203 | 1.0 | 4.0 | 0.00 | 0.00 | 0.00 | 94 | 1019.9 |
| 20260901135049 | 55 | 203 | 2.0 | 6.0 | 0.00 | 0.00 | 0.00 | 95 | 1019.8 |
| 20260901134538 | 54 | 248 | 2.0 | 7.0 | 0.00 | 0.00 | 0.00 | 95 | 1019.7 |
| 20260901134032 | 54 | 203 | 2.0 | 7.0 | 0.00 | 0.00 | 0.00 | 96 | 1019.6 |
| 20260901133517 | 54 | 225 | 1.0 | 9.0 | 0.00 | 0.00 | 0.00 | 96 | 1020.0 |
| 20260901133008 | 54 | 225 | 2.0 | 9.0 | 0.00 | 0.00 | 0.00 | 96 | 1019.9 |
| 20260901132458 | 54 | 203 | 1.0 | 4.0 | 0.00 | 0.00 | 0.00 | 96 | 1019.9 |
| 20260901131947 | 54 | 90 | 2.0 | 4.0 | 0.00 | 0.00 | 0.00 | 96 | 1019.6 |
| 20260901131437 | 54 | 225 | 2.0 | 4.0 | 0.00 | 0.00 | 0.00 | 97 | 1019.8 |
| 20260901130928 | 54 | 158 | 2.0 | 6.0 | 0.00 | 0.00 | 0.00 | 97 | 1020.1 |
| 20260901130417 | 53 | 225 | 2.0 | 6.0 | 0.00 | 0.00 | 0.00 | 97 | 1020.1 |
| 20260901124847 | 53 | 113 | 2.0 | 4.0 | 0.00 | 0.00 | 0.00 | 97 | 1019.8 |
| 20260901124336 | 53 | 113 | 1.0 | 4.0 | 0.00 | 0.00 | 0.00 | 98 | 1019.8 |
| 20260901123827 | 53 | 23 | 2.0 | 4.0 | 0.00 | 0.00 | 0.00 | 98 | 1019.8 |
| 20260901123316 | 54 | 225 | 2.0 | 4.0 | 0.00 | 0.00 | 0.00 | 98 | 1019.7 |
| 20260901122806 | 54 | 158 | 1.0 | 4.0 | 0.00 | 0.00 | 0.00 | 98 | 1019.6 |
| 20260901122257 | 54 | 158 | 2.0 | 4.0 | 0.00 | 0.00 | 0.00 | 98 | 1019.5 |
| 20260901121745 | 54 | 113 | 1.0 | 4.0 | 0.00 | 0.00 | 0.00 | 98 | 1019.4 |
| 20260901121236 | 53 | 68 | 0.0 | 6.0 | 0.00 | 0.00 | 0.00 | 98 | 1019.4 |
| 20260901120726 | 53 | 270 | 1.0 | 6.0 | 0.00 | 0.00 | 0.00 | 98 | 1019.5 |
| 20260901120216 | 53 | 135 | 1.0 | 4.0 | 0.00 | 0.00 | 0.00 | 98 | 1019.5 |
| 20260901115706 | 53 | 203 | 2.0 | 4.0 | 0.00 | 0.00 | 0.00 | 98 | 1019.6 |
| 20260901115155 | 53 | 135 | 1.0 | 4.0 | 0.00 | 0.00 | 0.00 | 98 | 1019.2 |
| 20260901114644 | 53 | 180 | 2.0 | 4.0 | 0.00 | 0.00 | 0.00 | 98 | 1019.2 |
| 20260901114135 | 53 | 203 | 2.0 | 4.0 | 0.00 | 0.00 | 0.00 | 98 | 1019.1 |
| 20260901113625 | 53 | 315 | 1.0 | 4.0 | 0.00 | 0.00 | 0.00 | 98 | 1019.0 |
| 20260901113114 | 53 | 158 | 2.0 | 4.0 | 0.00 | 0.00 | 0.00 | 98 | 1019.0 |
| 20260901112604 | 53 | 135 | 1.0 | 2.0 | 0.00 | 0.00 | 0.00 | 98 | 1018.9 |
| 20260901112054 | 53 | 203 | 1.0 | 2.0 | 0.00 | 0.00 | 0.00 | 98 | 1018.9 |
| 20260901111544 | 53 | 158 | 1.0 | 4.0 | 0.00 | 0.00 | 0.00 | 98 | 1018.6 |
| 20260901110524 | 53 | 135 | 1.0 | 4.0 | 0.00 | 0.00 | 0.00 | 98 | 1018.5 |
| 20260901110014 | 53 | 90 | 1.0 | 4.0 | 0.00 | 0.00 | 0.00 | 98 | 1018.6 |
| 20260901105503 | 53 | 203 | 2.0 | 4.0 | 0.00 | 0.00 | 0.00 | 98 | 1018.4 |
| 20260901104953 | 53 | 68 | 1.0 | 4.0 | 0.00 | 0.00 | 0.00 | 98 | 1018.5 |
| 20260901104443 | 53 | 113 | 1.0 | 4.0 | 0.00 | 0.00 | 0.00 | 98 | 1018.6 |
| 20260901103933 | 53 | 203 | 1.0 | 4.0 | 0.00 | 0.00 | 0.00 | 98 | 1018.3 |
| 20260901103423 | 53 | 90 | 1.0 | 4.0 | 0.00 | 0.00 | 0.00 | 98 | 1018.2 |
| 20260901102912 | 53 | 113 | 1.0 | 4.0 | 0.00 | 0.00 | 0.00 | 98 | 1018.3 |
| 20260901102403 | 53 | 225 | 0.0 | 2.0 | 0.00 | 0.00 | 0.00 | 98 | 1018.2 |
| 20260901101852 | 53 | 203 | 1.0 | 2.0 | 0.00 | 0.00 | 0.00 | 98 | 1018.0 |
| 20260901101342 | 53 | 203 | 1.0 | 2.0 | 0.00 | 0.00 | 0.00 | 98 | 1018.1 |
| 20260901100832 | 53 | 135 | 2.0 | 2.0 | 0.00 | 0.00 | 0.00 | 98 | 1018.0 |
| 20260901095811 | 53 | 203 | 2.0 | 4.0 | 0.00 | 0.00 | 0.00 | 98 | 1017.9 |
| 20260901095301 | 53 | 203 | 1.0 | 6.0 | 0.00 | 0.00 | 0.00 | 98 | 1017.8 |
| 20260901094748 | 53 | 225 | 2.0 | 6.0 | 0.00 | 0.00 | 0.00 | 98 | 1017.7 |
| 20260901094241 | 53 | 338 | 2.0 | 6.0 | 0.00 | 0.00 | 0.00 | 98 | 1018.0 |
| 20260901093731 | 53 | 270 | 1.0 | 4.0 | 0.00 | 0.00 | 0.00 | 98 | 1017.7 |
| 20260901093221 | 53 | 225 | 1.0 | 4.0 | 0.00 | 0.00 | 0.00 | 98 | 1017.9 |
| 20260901092710 | 53 | 203 | 2.0 | 4.0 | 0.00 | 0.00 | 0.00 | 98 | 1017.9 |
| 20260901092201 | 52 | 158 | 1.0 | 2.0 | 0.00 | 0.00 | 0.00 | 98 | 1018.1 |
| 20260901091656 | 52 | 68 | 1.0 | 2.0 | 0.00 | 0.00 | 0.00 | 98 | 1018.0 |
| 20260901091140 | 52 | 203 | 0.0 | 2.0 | 0.00 | 0.00 | 0.00 | 98 | 1018.0 |
| 20260901090635 | 52 | 158 | 1.0 | 4.0 | 0.00 | 0.00 | 0.00 | 98 | 1017.9 |
| 20260901090120 | 52 | 158 | 0.0 | 4.0 | 0.00 | 0.00 | 0.00 | 98 | 1017.8 |
| 20260901085610 | 52 | 248 | 1.0 | 4.0 | 0.00 | 0.00 | 0.00 | 98 | 1017.9 |
| 20260901085100 | 52 | 225 | 1.0 | 4.0 | 0.00 | 0.00 | 0.00 | 98 | 1017.9 |
| 20260901084550 | 52 | 135 | 1.0 | 4.0 | 0.00 | 0.00 | 0.00 | 98 | 1018.0 |
| 20260901084039 | 52 | 158 | 1.0 | 4.0 | 0.00 | 0.00 | 0.00 | 98 | 1018.0 |
| 20260901082509 | 52 | 203 | 2.0 | 4.0 | 0.00 | 0.00 | 0.00 | 98 | 1018.0 |
| 20260901081959 | 52 | 248 | 1.0 | 4.0 | 0.00 | 0.00 | 0.00 | 98 | 1017.7 |
| 20260901081449 | 52 | 180 | 1.0 | 6.0 | 0.00 | 0.00 | 0.00 | 98 | 1017.6 |
| 20260901080939 | 52 | 203 | 2.0 | 6.0 | 0.00 | 0.00 | 0.00 | 98 | 1017.5 |
| 20260901080429 | 52 | 180 | 1.0 | 6.0 | 0.00 | 0.00 | 0.00 | 98 | 1017.5 |
| 20260901075408 | 52 | 203 | 1.0 | 4.0 | 0.00 | 0.00 | 0.00 | 98 | 1017.5 |
| 20260901074858 | 52 | 203 | 2.0 | 4.0 | 0.00 | 0.00 | 0.00 | 98 | 1017.9 |
| 20260901073332 | 51 | 90 | 1.0 | 2.0 | 0.00 | 0.00 | 0.00 | 98 | 1017.4 |
| 20260901071757 | 51 | 158 | 1.0 | 2.0 | 0.00 | 0.00 | 0.00 | 98 | 1017.8 |
| 20260901071247 | 51 | 90 | 0.0 | 2.0 | 0.00 | 0.00 | 0.00 | 98 | 1017.6 |
| 20260901070737 | 51 | 68 | 1.0 | 2.0 | 0.00 | 0.00 | 0.00 | 98 | 1017.6 |
| 20260901070226 | 51 | 90 | 0.0 | 2.0 | 0.00 | 0.00 | 0.00 | 98 | 1017.6 |
| 20260901065717 | 51 | 68 | 1.0 | 2.0 | 0.00 | 0.00 | 0.00 | 98 | 1017.7 |
| 20260901065207 | 51 | 180 | 1.0 | 2.0 | 0.00 | 0.00 | 0.00 | 98 | 1017.8 |
| 20260901064656 | 50 | 90 | 1.0 | 2.0 | 0.00 | 0.00 | 0.00 | 98 | 1017.8 |
| 20260901064148 | 51 | 248 | 1.0 | 4.0 | 0.00 | 0.00 | 0.00 | 98 | 1017.7 |
| 20260901063636 | 51 | 135 | 0.0 | 4.0 | 0.00 | 0.00 | 0.00 | 98 | 1018.0 |
| 20260901063126 | 51 | 90 | 1.0 | 2.0 | 0.00 | 0.00 | 0.00 | 98 | 1017.8 |
| 20260901062616 | 51 | 23 | 0.0 | 2.0 | 0.00 | 0.00 | 0.00 | 98 | 1018.0 |
| 20260901061557 | 51 | 90 | 0.0 | 2.0 | 0.00 | 0.00 | 0.00 | 98 | 1018.2 |
| 20260901061045 | 51 | 90 | 0.0 | 2.0 | 0.00 | 0.00 | 0.00 | 98 | 1018.0 |
| 20260901060535 | 51 | 68 | 0.0 | 2.0 | 0.00 | 0.00 | 0.00 | 98 | 1018.4 |
| 20260901060025 | 51 | 90 | 0.0 | 2.0 | 0.00 | 0.00 | 0.00 | 98 | 1018.4 |
| 20260901055515 | 51 | 68 | 0.0 | 2.0 | 0.00 | 0.00 | 0.00 | 98 | 1018.3 |
| 20260901055005 | 51 | 90 | 0.0 | 2.0 | 0.00 | 0.00 | 0.00 | 98 | 1018.2 |
| 20260901054454 | 51 | 135 | 0.0 | 4.0 | 0.00 | 0.00 | 0.00 | 98 | 1018.2 |
| 20260901053944 | 51 | 180 | 0.0 | 4.0 | 0.00 | 0.00 | 0.00 | 98 | 1017.9 |
| 20260901053216 | 51 | 203 | 0.0 | 0.0 | 0.00 | 0.00 | 0.00 | 98 | 1018.1 |
| 20260901052715 | 51 | 203 | 0.0 | 4.0 | 0.00 | 0.01 | 0.00 | 98 | 1018.2 |
| 20260901052206 | 51 | 203 | 1.0 | 2.0 | 0.00 | 0.01 | 0.00 | 98 | 1018.3 |
| 20260901051655 | 51 | 113 | 0.0 | 2.0 | 0.00 | 0.01 | 0.00 | 98 | 1018.3 |
| 20260901051144 | 51 | 180 | 0.0 | 2.0 | 0.00 | 0.01 | 0.00 | 98 | 1018.3 |
| 20260901050635 | 51 | 158 | 1.0 | 2.0 | 0.00 | 0.01 | 0.00 | 98 | 1018.4 |
| 20260901050124 | 51 | 180 | 0.0 | 4.0 | 0.00 | 0.01 | 0.00 | 98 | 1018.2 |
| 20260901045614 | 51 | 68 | 1.0 | 4.0 | 0.00 | 0.01 | 0.00 | 98 | 1018.3 |
| 20260901045105 | 51 | 203 | 2.0 | 4.0 | 0.00 | 0.01 | 0.00 | 98 | 1018.0 |
| 20260901044555 | 51 | 248 | 1.0 | 2.0 | 0.00 | 0.01 | 0.00 | 98 | 1018.0 |
| 20260901044043 | 51 | 180 | 1.0 | 4.0 | 0.00 | 0.01 | 0.00 | 98 | 1018.2 |
| 20260901043534 | 51 | 203 | 2.0 | 4.0 | 0.00 | 0.01 | 0.00 | 98 | 1018.0 |
| 20260901043023 | 51 | 180 | 2.0 | 4.0 | 0.00 | 0.01 | 0.00 | 98 | 1017.9 |
| 20260901042513 | 52 | 135 | 2.0 | 4.0 | 0.00 | 0.01 | 0.00 | 98 | 1018.0 |
| 20260901042004 | 52 | 158 | 2.0 | 4.0 | 0.00 | 0.01 | 0.00 | 98 | 1018.0 |
| 20260901041453 | 52 | 158 | 1.0 | 4.0 | 0.00 | 0.01 | 0.00 | 98 | 1018.0 |
| 20260901040943 | 52 | 225 | 1.0 | 4.0 | 0.00 | 0.01 | 0.00 | 98 | 1017.9 |
| 20260901040433 | 52 | 225 | 1.0 | 4.0 | 0.00 | 0.01 | 0.00 | 98 | 1018.1 |
| 20260901035923 | 52 | 90 | 1.0 | 4.0 | 0.00 | 0.01 | 0.00 | 98 | 1018.1 |
| 20260901034352 | 52 | 113 | 1.0 | 2.0 | 0.00 | 0.01 | 0.00 | 98 | 1018.3 |
| 20260901033842 | 52 | 158 | 0.0 | 2.0 | 0.00 | 0.01 | 0.00 | 98 | 1018.3 |
| 20260901032311 | 52 | 203 | 1.0 | 4.0 | 0.00 | 0.01 | 0.00 | 98 | 1018.5 |
| 20260901031801 | 52 | 135 | 0.0 | 2.0 | 0.00 | 0.01 | 0.00 | 98 | 1018.6 |
| 20260901031251 | 52 | 248 | 1.0 | 2.0 | 0.00 | 0.01 | 0.00 | 98 | 1018.4 |
| 20260901030741 | 52 | 45 | 0.0 | 2.0 | 0.00 | 0.01 | 0.00 | 98 | 1018.4 |
| 20260901030231 | 52 | 158 | 1.0 | 2.0 | 0.00 | 0.01 | 0.00 | 98 | 1018.4 |
| 20260901025721 | 52 | 225 | 0.0 | 2.0 | 0.00 | 0.01 | 0.01 | 98 | 1018.6 |
| 20260901025212 | 52 | 203 | 0.0 | 2.0 | 0.00 | 0.01 | 0.01 | 98 | 1018.6 |
| 20260901024151 | 52 | 0 | 0.0 | 2.0 | 0.00 | 0.01 | 0.01 | 98 | 1018.6 |
| 20260901022619 | 52 | 158 | 0.0 | 2.0 | 0.00 | 0.01 | 0.01 | 98 | 1018.5 |
| 20260901022110 | 52 | 113 | 0.0 | 2.0 | 0.00 | 0.01 | 0.01 | 98 | 1018.4 |
| 20260901021600 | 52 | 90 | 1.0 | 2.0 | 0.00 | 0.01 | 0.01 | 98 | 1018.5 |
| 20260901020539 | 52 | 113 | 1.0 | 4.0 | 0.00 | 0.01 | 0.01 | 98 | 1018.3 |
| 20260901020029 | 53 | 45 | 1.0 | 4.0 | 0.00 | 0.01 | 0.01 | 98 | 1018.4 |
| 20260901015519 | 53 | 113 | 0.0 | 2.0 | 0.00 | 0.01 | 0.01 | 98 | 1018.5 |
| 20260901015008 | 53 | 68 | 0.0 | 2.0 | 0.00 | 0.01 | 0.01 | 98 | 1018.4 |
| 20260901013948 | 53 | 180 | 0.0 | 2.0 | 0.00 | 0.01 | 0.01 | 98 | 1018.2 |
| 20260901013438 | 53 | 113 | 0.0 | 2.0 | 0.00 | 0.01 | 0.01 | 98 | 1018.1 |
| 20260901012928 | 53 | 225 | 0.0 | 2.0 | 0.00 | 0.01 | 0.01 | 98 | 1018.0 |
| 20260901012418 | 53 | 90 | 0.0 | 2.0 | 0.00 | 0.01 | 0.01 | 98 | 1018.2 |
| 20260901011908 | 53 | 68 | 0.0 | 2.0 | 0.00 | 0.01 | 0.01 | 98 | 1018.0 |
| 20260901011403 | 53 | 135 | 0.0 | 2.0 | 0.00 | 0.01 | 0.01 | 97 | 1017.8 |
| 20260901010848 | 53 | 225 | 2.0 | 2.0 | 0.00 | 0.01 | 0.01 | 97 | 1017.6 |
| 20260901010338 | 53 | 225 | 1.0 | 4.0 | 0.00 | 0.01 | 0.01 | 97 | 1017.5 |
| 20260901005828 | 53 | 225 | 2.0 | 4.0 | 0.00 | 0.01 | 0.01 | 97 | 1017.5 |
| 20260901005317 | 53 | 225 | 1.0 | 2.0 | 0.00 | 0.01 | 0.01 | 97 | 1017.1 |
| 20260901004807 | 53 | 203 | 1.0 | 4.0 | 0.00 | 0.01 | 0.01 | 97 | 1017.6 |
| 20260901004257 | 53 | 203 | 2.0 | 4.0 | 0.00 | 0.01 | 0.01 | 97 | 1017.5 |
| 20260901003747 | 53 | 180 | 1.0 | 4.0 | 0.00 | 0.01 | 0.01 | 97 | 1017.4 |
| 20260901003237 | 53 | 203 | 1.0 | 4.0 | 0.00 | 0.01 | 0.01 | 97 | 1017.4 |
| 20260901002726 | 53 | 180 | 1.0 | 4.0 | 0.00 | 0.01 | 0.01 | 97 | 1017.6 |
| 20260901001706 | 53 | 203 | 1.0 | 2.0 | 0.00 | 0.01 | 0.01 | 97 | 1017.8 |
| 20260901001156 | 53 | 203 | 0.0 | 2.0 | 0.00 | 0.01 | 0.01 | 97 | 1017.6 |
| 20260901000650 | 53 | 203 | 0.0 | 2.0 | 0.00 | 0.01 | 0.01 | 97 | 1017.6 |
| 20260901000135 | 53 | 90 | 0.0 | 2.0 | 0.00 | 0.01 | 0.01 | 97 | 1017.7 |
| 20260831235626 | 53 | 90 | 0.0 | 2.0 | 0.00 | 0.01 | 0.01 | 97 | 1017.4 |
| 20260831235116 | 53 | 203 | 0.0 | 2.0 | 0.00 | 0.01 | 0.01 | 97 | 1017.4 |
| 20260831234055 | 53 | 90 | 0.0 | 2.0 | 0.00 | 0.01 | 0.01 | 97 | 1017.3 |
| 20260831233545 | 52 | 225 | 1.0 | 2.0 | 0.00 | 0.01 | 0.01 | 97 | 1017.2 |
| 20260831232525 | 53 | 293 | 1.0 | 2.0 | 0.00 | 0.01 | 0.01 | 97 | 1016.9 |
| 20260831232014 | 53 | 158 | 1.0 | 4.0 | 0.00 | 0.01 | 0.01 | 97 | 1016.9 |
| 20260831231506 | 53 | 248 | 1.0 | 4.0 | 0.00 | 0.01 | 0.01 | 97 | 1016.9 |
| 20260831225933 | 53 | 270 | 0.0 | 4.0 | 0.00 | 0.01 | 0.01 | 97 | 1016.8 |
| 20260831225424 | 53 | 225 | 1.0 | 4.0 | 0.00 | 0.01 | 0.01 | 97 | 1017.0 |
| 20260831224913 | 53 | 270 | 2.0 | 4.0 | 0.00 | 0.01 | 0.01 | 97 | 1017.0 |
| 20260831224404 | 53 | 203 | 2.0 | 6.0 | 0.00 | 0.01 | 0.01 | 96 | 1017.0 |
| 20260831223854 | 53 | 203 | 1.0 | 6.0 | 0.00 | 0.01 | 0.01 | 96 | 1017.0 |
| 20260831223344 | 53 | 338 | 1.0 | 2.0 | 0.00 | 0.01 | 0.01 | 96 | 1016.7 |
| 20260831222833 | 53 | 270 | 0.0 | 2.0 | 0.00 | 0.01 | 0.01 | 96 | 1016.5 |
| 20260831222324 | 53 | 0 | 0.0 | 2.0 | 0.00 | 0.01 | 0.01 | 96 | 1016.5 |
| 20260831221813 | 53 | 158 | 1.0 | 2.0 | 0.00 | 0.01 | 0.01 | 96 | 1016.5 |
| 20260831221304 | 53 | 0 | 0.0 | 2.0 | 0.00 | 0.01 | 0.01 | 96 | 1016.6 |
| 20260831220753 | 53 | 45 | 0.0 | 2.0 | 0.00 | 0.01 | 0.01 | 96 | 1016.4 |
| 20260831220243 | 53 | 293 | 0.0 | 2.0 | 0.00 | 0.01 | 0.01 | 96 | 1016.3 |
| 20260831215227 | 53 | 293 | 1.0 | 4.0 | 0.00 | 0.01 | 0.01 | 95 | 1016.2 |
| 20260831214712 | 53 | 203 | 0.0 | 4.0 | 0.00 | 0.01 | 0.01 | 95 | 1016.2 |
| 20260831214202 | 53 | 45 | 0.0 | 4.0 | 0.00 | 0.01 | 0.01 | 95 | 1016.0 |
| 20260831213652 | 53 | 68 | 0.0 | 6.0 | 0.00 | 0.01 | 0.01 | 95 | 1016.1 |
| 20260831212631 | 53 | 270 | 1.0 | 6.0 | 0.00 | 0.01 | 0.01 | 95 | 1016.3 |
| 20260831212122 | 53 | 270 | 2.0 | 6.0 | 0.00 | 0.01 | 0.01 | 94 | 1016.2 |
| 20260831211611 | 53 | 225 | 2.0 | 4.0 | 0.00 | 0.01 | 0.01 | 94 | 1016.1 |
| 20260831211101 | 53 | 203 | 2.0 | 4.0 | 0.00 | 0.01 | 0.01 | 94 | 1016.0 |
| 20260831210551 | 53 | 203 | 2.0 | 4.0 | 0.00 | 0.01 | 0.01 | 93 | 1016.1 |
| 20260831210042 | 53 | 225 | 2.0 | 4.0 | 0.00 | 0.01 | 0.01 | 93 | 1016.3 |
| 20260831204510 | 54 | 158 | 2.0 | 6.0 | 0.00 | 0.01 | 0.01 | 92 | 1015.9 |
| 20260831204000 | 54 | 248 | 2.0 | 6.0 | 0.00 | 0.01 | 0.01 | 92 | 1016.0 |
| 20260831203450 | 54 | 293 | 2.0 | 6.0 | 0.00 | 0.01 | 0.01 | 91 | 1016.0 |
| 20260831202940 | 55 | 158 | 1.0 | 6.0 | 0.00 | 0.01 | 0.01 | 90 | 1015.9 |
| 20260831202434 | 55 | 248 | 2.0 | 4.0 | 0.00 | 0.01 | 0.01 | 90 | 1016.0 |
| 20260831201924 | 55 | 293 | 2.0 | 4.0 | 0.00 | 0.01 | 0.01 | 90 | 1015.9 |
| 20260831201409 | 56 | 248 | 1.0 | 4.0 | 0.00 | 0.01 | 0.01 | 89 | 1015.9 |
| 20260831200900 | 56 | 0 | 0.0 | 4.0 | 0.00 | 0.01 | 0.01 | 89 | 1015.8 |
| 20260831200349 | 56 | 68 | 1.0 | 4.0 | 0.00 | 0.01 | 0.01 | 88 | 1015.7 |
| 20260831195329 | 56 | 225 | 1.0 | 4.0 | 0.00 | 0.01 | 0.01 | 87 | 1015.8 |
| 20260831194818 | 57 | 248 | 0.0 | 4.0 | 0.00 | 0.01 | 0.01 | 86 | 1015.9 |
| 20260831194309 | 57 | 68 | 0.0 | 4.0 | 0.00 | 0.01 | 0.01 | 86 | 1015.9 |
| 20260831193759 | 57 | 90 | 0.0 | 4.0 | 0.00 | 0.01 | 0.01 | 87 | 1015.8 |
| 20260831193248 | 57 | 45 | 0.0 | 4.0 | 0.00 | 0.01 | 0.01 | 87 | 1015.6 |
| 20260831192738 | 57 | 23 | 1.0 | 4.0 | 0.00 | 0.01 | 0.01 | 87 | 1015.9 |
| 20260831192228 | 56 | 225 | 1.0 | 4.0 | 0.00 | 0.01 | 0.01 | 87 | 1015.9 |
| 20260831191722 | 57 | 180 | 1.0 | 2.0 | 0.00 | 0.01 | 0.01 | 86 | 1015.8 |
| 20260831190700 | 57 | 45 | 0.0 | 4.0 | 0.00 | 0.01 | 0.01 | 86 | 1015.8 |
| 20260831190149 | 58 | 68 | 1.0 | 4.0 | 0.00 | 0.01 | 0.01 | 84 | 1015.8 |
| 20260831185640 | 58 | 225 | 0.0 | 2.0 | 0.00 | 0.01 | 0.01 | 84 | 1015.8 |
| 20260831185130 | 58 | 23 | 0.0 | 2.0 | 0.00 | 0.01 | 0.01 | 83 | 1015.7 |
| 20260831184620 | 59 | 23 | 0.0 | 2.0 | 0.00 | 0.01 | 0.01 | 81 | 1015.7 |
| 20260831184111 | 58 | 293 | 0.0 | 4.0 | 0.00 | 0.01 | 0.01 | 82 | 1015.8 |
| 20260831183559 | 59 | 270 | 1.0 | 4.0 | 0.00 | 0.01 | 0.01 | 81 | 1015.7 |
| 20260831183051 | 60 | 338 | 0.0 | 2.0 | 0.00 | 0.01 | 0.01 | 81 | 1015.7 |
| 20260831182540 | 60 | 113 | 0.0 | 2.0 | 0.00 | 0.01 | 0.01 | 79 | 1015.7 |
| 20260831181520 | 61 | 135 | 0.0 | 2.0 | 0.00 | 0.01 | 0.01 | 78 | 1015.6 |
| 20260831181009 | 61 | 203 | 0.0 | 4.0 | 0.00 | 0.01 | 0.01 | 78 | 1015.7 |
| 20260831180458 | 60 | 248 | 0.0 | 4.0 | 0.00 | 0.01 | 0.01 | 80 | 1015.8 |
| 20260831175948 | 60 | 0 | 1.0 | 4.0 | 0.00 | 0.01 | 0.01 | 79 | 1015.8 |
| 20260831175439 | 60 | 315 | 0.0 | 4.0 | 0.00 | 0.01 | 0.01 | 81 | 1015.6 |
| 20260831174928 | 60 | 90 | 1.0 | 4.0 | 0.00 | 0.01 | 0.01 | 80 | 1015.7 |
| 20260831174417 | 60 | 338 | 0.0 | 4.0 | 0.00 | 0.01 | 0.01 | 80 | 1015.6 |
| 20260831173357 | 60 | 113 | 0.0 | 4.0 | 0.00 | 0.01 | 0.01 | 81 | 1015.7 |